Regional Weather Roundup
Issued by NWS

Home | Current Version | Previous Version | Graphics & Text | Print | Product List | Glossary On
Versions: 1 2 3 4 5 6 7 8 9 10 11 12 13 14 15 16 17 18 19 20 21 22 23 24 25 26 27 28 29 30 31 32 33 34 35 36 37 38 39 40 41 42 43 44 45 46 47 48 49 50
000
ASUS43 KMPX 300410
RWRMN
WEATHER ROUNDUP FOR MINNESOTA
NATIONAL WEATHER SERVICE TWIN CITIES/CHANHASSEN MN
1100 PM CDT SUN MAR 29 2015


NOTE: "FAIR" INDICATES FEW OR NO CLOUDS BELOW 12,000 FEET WITH NO
SIGNIFICANT WEATHER AND/OR OBSTRUCTIONS TO VISIBILITY. N/A MEANS
CURRENT SKY AND/OR WEATHER CONDITIONS ARE NOT AVAILABLE.

MNZ060>063-068>070-300500-
   Twin Cities Metro

CITY           SKY/WX    TMP DP  RH WIND       PRES   REMARKS
TWIN CITIES    CLEAR     44  26  49 W8        29.96R
ST PAUL        CLEAR     45  25  45 W14G21    29.96R
CRYSTAL        PTCLDY    43  25  49 W8        29.95R
BLAINE         CLEAR     43  27  52 W8        29.94S
LAKEVILLE      CLEAR     37  28  70 W9        29.96S
EDEN PRAIRIE   PTCLDY    40  27  59 W6        29.96R
SOUTH ST PAUL  CLEAR     44  26  50 W8        29.95S
LAKE ELMO      FAIR      36  28  75 W7        29.95R
$$
MNZ001>005-007-008-013>017-022>024-027-028-300500-
   Northwest Minnesota

CITY           SKY/WX    TMP DP  RH WIND       PRES   REMARKS
BEMIDJI        CLEAR     36  27  69 SW7       29.87S
HALLOCK        CLEAR     36  30  80 W6        29.88S
ROSEAU         CLEAR     41  27  56 W7        29.85S
WARROAD        CLEAR     37  27  65 W7        29.85R
THIEF RVR FALL CLEAR     37  28  70 W9        29.89S
CROOKSTON      CLEAR     34  27  75 W9        29.91S WCI  26
FOSSTON        FAIR      30  25  80 CALM      29.89F
DETROIT LAKES  CLEAR     43  30  61 W6        29.92S
MOORHEAD       MOCLDY    43  34  70 SW6       29.93F
PARK RAPIDS    CLEAR     32  26  78 SW5       29.89S WCI  27
MAHNOMEN       MOCLDY    37  29  71 W7        29.90S
$$
MNZ006-009>011-018-025>026-300500-
   North Central Minnesota

CITY           SKY/WX    TMP DP  RH WIND       PRES   REMARKS
BAUDETTE       CLEAR     38  25  59 W9        29.82R
FLAG ISLAND    CLEAR     39  25  56 W14       29.80S
INTL FALLS     CLEAR     35  25  66 W8        29.79S WCI  29
WASKISH        MOCLDY    36  30  80 CALM      29.85R
BIG FORK       CLEAR     32  25  74 SW5       29.83S WCI  27
LONGVILLE      CLEAR     36  25  64 W5        29.88S
GRAND RAPIDS   CLEAR     39  25  56 W7        29.85S
CRANE LAKE     CLEAR     36  25  64 SW2       29.79S
ORR            CLEAR     36  23  60 CALM      29.77S
COOK           CLEAR     34  27  75 SW6       29.80F WCI  29
WALKER         FAIR      37  25  62 W3        29.88S
$$
MNZ012-019>021-037-300500-
   Northeast Minnesota

CITY           SKY/WX    TMP DP  RH WIND       PRES   REMARKS
DULUTH         PTCLDY    35  24  64 W8        29.82S WCI  29
ELY            CLEAR     36  25  64 W7        29.76S
HIBBING        CLEAR     32  23  69 W5        29.82S WCI  27
EVELETH        CLEAR     34  27  75 W5        29.82S WCI  30
DULUTH HARBOR  CLEAR     39  27  60 CALM      29.85S
TWO HARBORS    CLEAR     41  28  60 W6        29.79R
SILVER BAY     CLEAR     39  27  60 W5        29.76S
GRAND MARAIS     N/A     39  28  64 VRB7      29.70R
G MARAIS ARPRT PTCLDY    34  25  69 W13G18    29.67S WCI  25
$$
MNZ029>031-032-039>041-046>048-054>057-064-300500-
   West Central Minnesota

CITY           SKY/WX    TMP DP  RH WIND       PRES   REMARKS
FERGUS FALLS   CLOUDY    39  28  65 SW3       29.96S
WHEATON        PTCLDY    36  27  69 SW7       29.97F
MORRIS         PTCLDY    37  28  70 W6        29.95F
ALEXANDRIA     CLOUDY    38  27  64 SW6       29.95S
ELBOW LAKE     CLOUDY    40  28  62 W5        29.95S
WADENA         MOCLDY    37  27  65 W6        29.92S
GLENWOOD       MOCLDY    37  28  70 W7        29.96S
APPLETON       CLEAR     37  27  65 SW9       29.98S
BENSON         PTCLDY    36  27  69 W5        29.97S
ORTONVILLE     CLEAR     45  27  49 W8        29.98S
MADISON        CLEAR     41  27  56 W8        29.99S
WILLMAR        FAIR      37  28  70 CALM      29.99S
$$
MNZ033>034-036-042>043-049>051-058-059-300500-
   Central Minnesota

CITY           SKY/WX    TMP DP  RH WIND       PRES   REMARKS
ST CLOUD       PTCLDY    38  25  59 SW6       29.94S
SAUK CENTRE    CLOUDY    37  29  73 W3        29.95S
PAYNESVILLE    CLOUDY    34  27  75 SW5       29.97S WCI  30
AITKIN         CLEAR     39  25  56 W3        29.87F
PINE RIVER     CLEAR     37  27  65 W3        29.93S
BRAINERD       CLEAR     36  22  56 W7        29.91S
STAPLES        CLOUDY    37  25  60 W5        29.91S
LONG PRAIRIE   CLOUDY    39  27  60 SW6       29.94S
LITTLE FALLS   CLEAR     32  23  69 CALM      29.93F
LITCHFIELD     CLOUDY    43  28  56 CALM      29.98S
BUFFALO        MOCLDY    37  27  65 CALM      29.97S
MAPLE LAKE     PTCLDY    41  29  63 W5        29.97S
$$
MNZ037-044-045-052-053-300500-
   East Central Minnesota

CITY           SKY/WX    TMP DP  RH WIND       PRES   REMARKS
PRINCETON      CLEAR     37  25  60 CALM      29.93F
MORA           CLEAR     37  25  60 W3        29.92S
CAMBRIDGE      CLEAR     43  27  52 SW5       29.91S
RUSH CITY      FAIR      35  26  69 SW3       29.91S
MOOSE LAKE     CLEAR     37  25  60 CALM      29.86R
HINCKLEY       FAIR      36  28  75 W5        29.89S
CLOQUET        CLEAR     36  25  64 W7        29.84S
MCGREGOR       CLEAR     39  28  65 W7        29.88S
$$
MNZ071>073-080-081-089-090-097-098-300500-
   Southwest Minnesota

CITY           SKY/WX    TMP DP  RH WIND       PRES   REMARKS
MONTEVIDEO     CLEAR     39  25  56 W3        29.99F
GRANITE FALLS  CLEAR     37  26  64 SW8       30.01S
CANBY          CLEAR     41  26  54 SW9       30.01F
MARSHALL       CLEAR     39  23  52 W13       30.02S
REDWOOD FALLS  CLEAR     43  25  49 W8        29.99F
OLIVIA         CLEAR     34  28  80 SW8       29.98F WCI  27
PIPESTONE      CLEAR     36  21  55 SW3       30.03F
WINDOM         CLEAR     37  25  60 CALM      30.03S
WORTHINGTON    CLEAR     36  19  51 SW7       30.06S
JACKSON        CLEAR     41  23  48 SW5       30.04S
TRACY          CLEAR     40  26  57 SW9       30.02S
SLAYTON        CLEAR     40  21  47 CALM      30.04S
$$
MNZ065>067-074>077-082>085-091>093-300500-
   South Central Minnesota

CITY           SKY/WX    TMP DP  RH WIND       PRES   REMARKS
MANKATO        CLEAR     43  27  52 W8        30.00S
NEW ULM        CLEAR     36  25  64 W6        30.00F
ST JAMES       CLEAR     37  25  60 SW9       30.03S
FAIRMONT       CLEAR     41  21  45 W10       30.02F
GLENCOE        PTCLDY    39  32  75 W5        29.97S
FARIBAULT      CLEAR     41  30  65 W7        29.99R
OWATONNA       CLEAR     39  30  70 W7        29.99R
WASECA         CLEAR     37  30  75 W7        30.01S
ALBERT LEA     CLEAR     39  30  70 W6        30.01R
$$
MNZ078>079-086>088-094>096-300500-
   Southeast Minnesota

CITY           SKY/WX    TMP DP  RH WIND       PRES   REMARKS
ROCHESTER      CLEAR     38  29  70 W13       29.97R
RED WING       CLEAR     39  27  60 W3        29.94S
STANTON        CLEAR     41  29  63 W7        29.96R
DODGE CENTER   CLEAR     41  30  65 W10       29.97R
WINONA         CLEAR     43  28  56 NW7       29.94S
AUSTIN         FAIR      41  30  65 W8        29.99R
PRESTON        CLEAR     37  29  71 W12       29.97R
$$
ABBREVIATIONS USED IN REMARKS
   TC - TEMPERATURES IN CELSIUS
  WCI - WIND CHILL INDEX
   HX - HEAT INDEX
  VSB - VISIBILITY
$$


USA.gov is the U.S. government's official web portal to all federal, state and local government web resources and services.